• Join FlightAware (Why Join?)
  • Login
  • US Flag 
05:43AM EST


 

Airport Tracker/Info


-or-


 

Live Flight TrackerFlight Track Log ✈ N315CJ ✈ 08-Apr-2014 ✈ KPBI - KIAD

Flight Track Log - Related Links

Times and Time Zones

All times are in EDT time to prevent confusion due to time zone crossing. See the N315CJ flight status page for this flight to view local times or setup timezone preferences in your user account.

Time Position Orientation Groundspeed Altitude Reporting Facility
EDT Latitude Longitude Course Direction KTS MPH feet Rate Location/Type
12:38PM 26.6846 -80.1436 272° West 172 198 2,400  Level FlightAware ADS-B (RJTF)
12:38PM 26.6854 -80.1636 273° West 185 213 3,000 2,600 Climbing FlightAware ADS-B (RJTF)
12:39PM 26.6859 -80.1744 273° West 193 222 3,700 2,800 Climbing FlightAware ADS-B (RJTF)
12:39PM 26.6868 -80.1920 273° West 198 228 4,400 2,710 Climbing FlightAware ADS-B (RJTF)
12:39PM 26.6882 -80.2061 286° West 209 241 5,100 2,600 Climbing FlightAware ADS-B (RJTF)
12:39PM 26.6939 -80.2221 301° West 222 255 5,700 2,690 Climbing FlightAware ADS-B (RJTF)
12:40PM 26.7049 -80.2370 318° Northwest 235 270 6,400 2,600 Climbing FlightAware ADS-B (RJTF)
12:40PM 26.7166 -80.2460 331° Northwest 236 272 7,000 2,600 Climbing FlightAware ADS-B (RJTF)
12:40PM 26.7333 -80.2561 332° Northwest 228 262 7,700 2,903 Climbing FlightAware ADS-B (RJTF)
12:40PM 26.7447 -80.2629 332° Northwest 231 266 8,500 2,800 Climbing FlightAware ADS-B (RJTF)
12:41PM 26.7746 -80.2805 333° Northwest 240 276 9,800 2,746 Climbing FlightAware ADS-B (RJTF)
12:41PM 26.8066 -80.2991 332° Northwest 242 278 11,200 2,754 Climbing FlightAware ADS-B (RJTF)
12:42PM 26.8333 -80.3146 332° Northwest 239 275 12,600 2,720 Climbing FlightAware ADS-B (RJTF)
12:43PM 26.8798 -80.3399 339° North 244 281 14,600 2,432 Climbing FlightAware ADS-B (RJTF)
12:43PM 26.9048 -80.3511 337° Northwest 258 297 15,600 2,100 Climbing FlightAware ADS-B (RJTF)
12:44PM 26.9462 -80.3704 337° Northwest 262 302 16,700 2,262 Climbing FlightAware ADS-B (RJTF)
12:44PM 26.9771 -80.3848 337° Northwest 262 302 17,900 1,132 Climbing FlightAware ADS-B (RJTF)
12:50PM 27.4059 -80.6489 332° Northwest 369 425 23,400 1,153 Climbing FlightAware ADS-B
12:50PM 27.4892 -80.6987 332° Northwest 325 374 25,200 1,705 Climbing FlightAware ADS-B
12:51PM 27.5391 -80.7286 332° Northwest 315 362 26,100 1,373 Climbing FlightAware ADS-B
12:52PM 27.5962 -80.7627 332° Northwest 316 364 27,100 1,105 Climbing FlightAware ADS-B
12:52PM 27.6303 -80.7831 332° Northwest 322 371 27,500 1,083 Climbing FlightAware ADS-B
12:53PM 27.6920 -80.8199 332° Northwest 325 374 28,400 1,213 Climbing FlightAware ADS-B
12:54PM 27.7571 -80.8591 332° Northwest 325 374 29,300 1,024 Climbing FlightAware ADS-B
12:54PM 27.7947 -80.8816 332° Northwest 326 375 29,800 1,151 Climbing FlightAware ADS-B
12:55PM 27.8541 -80.9173 332° Northwest 329 379 30,700 1,200 Climbing FlightAware ADS-B
12:56PM 27.8947 -80.9418 332° Northwest 332 382 31,200 943 Climbing FlightAware ADS-B
12:56PM 27.9475 -80.9736 332° Northwest 340 391 31,800 845 Climbing FlightAware ADS-B
12:57PM 27.9938 -80.9952 346° North 360 414 32,200 844 Climbing FlightAware ADS-B
12:57PM 28.0494 -81.0079 349° North 367 422 32,700 794 Climbing FlightAware ADS-B (KSFB)
12:58PM 28.1079 -81.0205 349° North 371 427 33,100 738 Climbing FlightAware ADS-B (KSFB)
12:58PM 28.1599 -81.0317 349° North 375 432 33,500 787 Climbing FlightAware ADS-B (KSFB)
12:59PM 28.2126 -81.0431 349° North 377 434 33,900 885 Climbing FlightAware ADS-B
12:59PM 28.2591 -81.0531 349° North 377 434 34,400 968 Climbing FlightAware ADS-B
01:00PM 28.3164 -81.0654 349° North 376 433 34,900 968 Climbing FlightAware ADS-B
01:00PM 28.3714 -81.0773 349° North 377 434 35,400 1,029 Climbing FlightAware ADS-B
01:01PM 28.4367 -81.0914 349° North 375 432 36,100 1,014 Climbing FlightAware ADS-B
01:02PM 28.4822 -81.1013 349° North 373 429 36,600 984 Climbing FlightAware ADS-B
01:02PM 28.5417 -81.1153 342° North 362 417 37,100 960 Climbing FlightAware ADS-B
01:02PM 28.5713 -81.1317 327° Northwest 342 394 37,400 682 Climbing FlightAware ADS-B
01:03PM 28.5972 -81.1594 309° West 322 371 37,600 778 Climbing FlightAware ADS-B (KSFB)
01:03PM 28.6212 -81.1940 308° West 324 373 38,100 882 Climbing FlightAware ADS-B (KSFB)
01:04PM 28.6687 -81.2464 326° Northwest 354 407 38,600 871 Climbing FlightAware ADS-B
01:04PM 28.7034 -81.2667 338° Northwest 371 427 39,000 1,059 Climbing FlightAware ADS-B (KSFB)
01:05PM 28.7489 -81.2810 350° North 386 444 39,500 1,263 Climbing FlightAware ADS-B (KSFB)
01:05PM 28.8026 -81.2891 353° North 381 438 40,200 1,258 Climbing FlightAware ADS-B (KSFB)
01:06PM 28.8587 -81.2973 353° North 377 434 40,800 716 Climbing FlightAware ADS-B (KSFB)
01:06PM 28.9201 -81.3062 353° North 384 442 41,000 182 Climbing FlightAware ADS-B
01:07PM 28.9750 -81.3140 353° North 397 457 41,000  Level FlightAware ADS-B
01:08PM 29.0324 -81.3222 353° North 408 470 41,000  Level FlightAware ADS-B
01:08PM 29.1193 -81.3345 353° North 419 482 41,000  Level FlightAware ADS-B
01:09PM 29.2055 -81.3467 353° North 427 491 41,000 160 Level FlightAware ADS-B
01:10PM 29.2667 -81.3554 353° North 425 489 41,200 750 Climbing FlightAware ADS-B
01:10PM 29.3463 -81.3667 353° North 412 474 41,900 940 Climbing FlightAware ADS-B
01:11PM 29.4177 -81.3770 353° North 403 464 42,500 900 Climbing FlightAware ADS-B
01:12PM 29.4971 -81.3884 353° North 398 458 43,100 867 Climbing FlightAware ADS-B
01:12PM 29.5828 -81.4007 353° North 392 451 43,800 690 Climbing FlightAware ADS-B
01:13PM 29.6461 -81.4098 353° North 393 452 44,100 500 Climbing FlightAware ADS-B
01:14PM 29.7172 -81.4200 353° North 394 453 44,400 514 Climbing FlightAware ADS-B
01:14PM 29.7783 -81.4287 353° North 395 455 44,700 507 Climbing FlightAware ADS-B
01:15PM 29.8477 -81.4386 353° North 394 453 45,000 220 Climbing FlightAware ADS-B
01:16PM 29.9277 -81.4502 353° North 403 464 45,000  Level FlightAware ADS-B
01:16PM 29.9787 -81.4576 353° North 408 470 45,000  Level FlightAware ADS-B
01:17PM 30.0206 -81.4653 353° North 392 451 45,000  Level Jacksonville Center
01:18PM 30.1375 -81.4828 353° North 398 458 45,000  Level Jacksonville Center
01:19PM 30.2694 -81.5000 354° North 420 483 45,000  Level Jacksonville Center
01:20PM 30.3906 -81.5006 360° North 426 490 45,000  Level Jacksonville Center
01:21PM 30.5131 -81.4531 18° North 444 511 45,000  Level Jacksonville Center
01:22PM 30.6356 -81.3981 21° North 449 517 45,000  Level Jacksonville Center
01:23PM 30.7561 -81.3406 22° Northeast 459 528 45,000  Level Jacksonville Center
01:24PM 30.8764 -81.2831 22° Northeast 464 534 45,000  Level Jacksonville Center
01:25PM 30.9969 -81.2275 22° Northeast 470 541 45,000  Level Jacksonville Center
01:27PM 31.2333 -81.1117 23° Northeast 452 520 45,000  Level Jacksonville Center
01:28PM 31.3453 -81.0561 23° Northeast 445 512 45,000  Level Jacksonville Center
01:29PM 31.4633 -81.0000 22° Northeast 445 512 45,000  Level Jacksonville Center
01:30PM 31.5711 -80.9492 22° Northeast 451 519 45,000  Level Jacksonville Center
01:32PM 31.8075 -80.8317 23° Northeast 456 525 45,000  Level Jacksonville Center
01:33PM 31.9400 -80.7700 22° Northeast 456 525 45,000  Level Jacksonville Center
01:35PM 32.1781 -80.6517 23° Northeast 461 531 45,000  Level Jacksonville Center
01:36PM 32.2981 -80.5947 22° Northeast 461 531 45,000  Level Jacksonville Center
01:37PM 32.4161 -80.5350 23° Northeast 450 518 45,000  Level Jacksonville Center
01:38PM 32.5339 -80.4778 22° Northeast 450 518 45,000  Level Jacksonville Center
01:39PM 32.6517 -80.4178 23° Northeast 450 518 45,000  Level Jacksonville Center
01:40PM 32.7694 -80.3603 22° Northeast 450 518 45,000  Level Jacksonville Center
01:41PM 32.8872 -80.3000 23° Northeast 450 518 45,000  Level Jacksonville Center
01:42PM 32.9947 -80.2425 24° Northeast 461 531 45,000  Level Jacksonville Center
01:44PM 33.2447 -80.1208 22° Northeast 476 548 45,000  Level Jacksonville Center
01:45PM 33.3603 -80.0625 23° Northeast 470 541 45,000  Level Jacksonville Center
01:47PM 33.5994 -79.9403 23° Northeast 464 534 45,000  Level Jacksonville Center
01:48PM 33.7211 -79.8786 23° Northeast 464 534 45,000  Level Jacksonville Center
01:49PM 33.8406 -79.8172 23° Northeast 470 541 45,000  Level Jacksonville Center
01:50PM 33.9622 -79.7553 23° Northeast 470 541 45,000  Level Jacksonville Center
01:51PM 34.0794 -79.6908 24° Northeast 470 541 45,000  Level Jacksonville Center
01:52PM 34.2033 -79.6311 22° Northeast 470 541 45,000  Level Jacksonville Center
01:54PM 34.4522 -79.5008 23° Northeast 453 521 45,000  Level Washington Center
01:56PM 34.6942 -79.3733 23° Northeast 465 535 45,000  Level Washington Center
01:57PM 34.8150 -79.3108 23° Northeast 465 535 45,000 -596 Level Washington Center
02:03PM 35.5672 -78.9103 23° Northeast 500 575 40,800 -708 Descending FlightAware ADS-B (KJNX)
02:03PM 35.6565 -78.8623 23° Northeast 501 577 40,200 -1,084 Descending FlightAware ADS-B (KJNX)
02:04PM 35.7558 -78.8086 23° Northeast 503 579 39,300 -1,769 Descending FlightAware ADS-B (KJNX)
02:05PM 35.8384 -78.7641 23° Northeast 502 578 37,900 -2,250 Descending FlightAware ADS-B (KJNX)
02:06PM 35.9486 -78.7094 23° Northeast 494 568 35,700 -2,053 Descending Washington Center
02:07PM 36.0797 -78.6375 24° Northeast 494 568 34,000 -2,292 Descending Washington Center
02:09PM 36.2953 -78.4447 36° Northeast 481 554 28,900 -2,308 Descending Washington Center
02:10PM 36.3839 -78.3164 49° Northeast 474 545 27,000 -958 Descending Washington Center
02:11PM 36.5081 -78.2639 19° North 466 536 27,000  Level Washington Center
02:12PM 36.6367 -78.2114 18° North 460 529 27,000  Level Washington Center
02:13PM 36.7528 -78.1478 24° Northeast 478 550 27,000  Level Washington Center
02:14PM 36.8756 -78.0586 30° Northeast 491 565 27,000 -807 Level Washington Center
02:15PM 37.0006 -77.9664 30° Northeast 510 587 25,400 -1,011 Descending Washington Center
02:17PM 37.2311 -77.7933 31° Northeast 489 563 24,000 -347 Descending Washington Center
02:19PM 37.4594 -77.6169 32° Northeast 478 550 24,000 -268 Level Washington Center
02:20PM 37.5786 -77.6017 North 445 512 23,200 -504 Descending Washington Center
02:21PM 37.6911 -77.6153 355° North 417 480 23,000 -198 Descending Washington Center
02:22PM 37.8017 -77.6181 359° North 401 461 22,800 -2,571 Descending Washington Center
02:23PM 38.0167 -77.5167 20° North 385 443 15,800 -3,643 Descending Potomac TRACON
02:24PM 38.1000 -77.4833 17° North 346 398 12,600 -2,924 Descending Potomac TRACON
02:25PM 38.1833 -77.4333 25° Northeast 319 367 10,000 -1,138 Descending Potomac TRACON
02:31PM 38.6081 -77.4427 North 250 288 5,300 -897 Descending FlightAware ADS-B (KDAA)
02:31PM 38.6260 -77.4424 North 249 287 4,900 -1,355 Descending FlightAware ADS-B (KDAA)
02:31PM 38.6450 -77.4420 North 252 290 4,600 -1,161 Descending FlightAware ADS-B (KDAA)
02:32PM 38.6612 -77.4405 North 250 288 4,300 -968 Descending FlightAware ADS-B (KDAA)
02:32PM 38.6798 -77.4393 North 248 285 4,100 -1,000 Descending FlightAware ADS-B (KDAA)
02:32PM 38.6970 -77.4389 North 248 285 3,800 -1,200 Descending FlightAware ADS-B (KDAA)
02:32PM 38.7147 -77.4389 North 250 288 3,500 -1,200 Descending FlightAware ADS-B (KDAA)
02:32PM 38.7202 -77.4391 359° North 246 283 3,400 -1,500 Descending FlightAware ADS-B (KDAA)
02:33PM 38.7225 -77.4392 North 244 281 3,300 -300 Descending FlightAware ADS-B (KDAA)
02:33PM 38.7395 -77.4393 North 217 250 3,300  Level FlightAware ADS-B (KDAA)
02:33PM 38.7603 -77.4395 North 196 226 3,300  Level FlightAware ADS-B (KDAA)
02:33PM 38.7764 -77.4390 North 166 191 3,300 -167 Level FlightAware ADS-B (KDAA)
02:34PM 38.7870 -77.4388 North 153 176 3,200 -1,000 Descending FlightAware ADS-B (KDAA)
02:34PM 38.7975 -77.4383 North 160 184 2,800 -1,448 Descending FlightAware ADS-B (KDAA)
02:34PM 38.8101 -77.4381 North 165 190 2,500 -800 Descending FlightAware ADS-B (KDAA)
02:34PM 38.8215 -77.4380 North 160 184 2,400 -343 Descending FlightAware ADS-B (KDAA)
02:35PM 38.8359 -77.4379 North 150 173 2,300 -300 Descending FlightAware ADS-B (KDAA)
02:35PM 38.8493 -77.4375 North 145 167 2,200 -514 Descending FlightAware ADS-B (KDAA)
02:35PM 38.8591 -77.4375 North 140 161 2,000 -857 Descending FlightAware ADS-B (KDAA)
02:36PM 38.8675 -77.4373 North 136 157 1,800 -800 Descending FlightAware ADS-B (KDAA)
02:36PM 38.8778 -77.4371 North 131 151 1,600 -652 Descending FlightAware ADS-B (KDAA)
02:36PM 38.8947 -77.4368 North 127 146 1,300 -1,024 Descending FlightAware ADS-B (KDAA)
02:37PM 38.9000 -77.4333 197° South 124 143 900 -2,000 Descending Potomac TRACON
02:39PM 38.9474 -77.4599 North  Level Estimated
02:42PM 38.9474 -77.4599 197° South  Level Estimated
02:46PM 38.9474 -77.4599 195° South  Level Estimated